Погода Варандей

Погода Варандей : погода сейчас, прогноз погоды и архив. Всё, что Вы хотите узнать о погоде Варандей!

Хотите узнать прогноз погоды Варандей? Тогда Вам сюда: Погода Варандей

Поиск расширенной информации на нашем сайте:

Другие новости

Новости СМИ2

Главная страница сайта

Новости сайта

03.07.2017

Напоминаем, что на нашем специализированном сайте Метеоцентр.Азия вы можете получить высокодетализированные автоматические прогнозы погоды по пунктам России, СНГ и мира в авиационном формате (включающие направление и скорость ветра, видимость, явления погоды, количество и форму облачности, нижнюю и верхнюю границу облачности).

Рекомендуем: туры в Маврикий на 10 дней на 2017 год здесь

Погода Варандей - сегодня

Время (UTC), дата Ветер
(°,м/с) 
Видим.   Явления Облачность Т
(°С)
Тd
(°С)
f(%) Тe
(°С)
Pmin
(гПа)
dP
(гПа)
Po
(мм)
O2
(г/м3)
Тmin Tmax R s Состояние
почвы
00 18.08.17 190 (Ю) 7{11}  20000 м    9/9 300 м 
[Sc]
+11.9 +10.6 92 +12  1013  -2.3  759  291           
03 18.08.17 210 (ЮЗ) 10-13{13}  н/о    н/о 
+12.9 +11.7 92 +14  1010.9  -2.1  758  289  +11.8         
06 18.08.17 270 (З) 10{13}  20000 м  {ливн. осадки}  10/10 330 м кучево-дожд. 
[Cb cap]
+11.4 +10.7 95 +11  1010.6  -0.3  757  291  +11.4         
09 18.08.17 250 (З) 10{16}  10 км    9/9 570 м 
[Sc]
+10.9 +9.8 93 +10  1011.5  0.9  758  292           
12 18.08.17 260 (З) 10{15}  10 км  {ливн. осадки}  10/10 300 м кучево-дожд. 
[Cb cap]
+11.9 +10.5 91 +12  1011.2  -0.3  758  291           
15 18.08.17 270 (З) 10{15}  10 км    9/9 300 м 
[Sc]
+10.2 +9.8 97 +9  1011.1  -0.1  758  293    +13.3     
18 18.08.17 300 (СЗ) 12{16}  10 км  в посл. час ливневой дождь  10/10 300 м кучево-дожд. 
[Cb cap]
+9.5 +8.3 92 +7  1012.9  1.8  759  294           
21 18.08.17 300 (СЗ) 10{15}  20000 м    10/10 360 м кучево-дожд. 
[Cb cap]
+8.2 +5.7 84 +5  1015.5  2.6  761  297           
00 19.08.17 320 (СЗ) 8{13}  20000 м    9/9 400 м 
[Sc]
+7.3 +3 74 +5  1017.3  1.8  762  299           
03 19.08.17 300 (СЗ) 6{12}  н/о    н/о 
+7.6 +3 73 +6  1018.4  763  299  +7.3         
06 19.08.17 280 (З) 20000 м    9/9 420 м 
[Sc]
+8.2 +3.9 74 +7  1019  0.7  764  298           
09 19.08.17 280 (З) 20000 м    9/9 420 м 
[Sc]
+8.6 +4.2 74 +7  1019  764  298           
12 19.08.17 280 (З) 20000 м    9/9 420 м 
[Sc]
+9 +4.2 72 +8  1018.9  -0.1  764  297           
15 19.08.17 060 (СВ) 20000 м    9/9 500 м 
[Sc]
+8.7 +4.5 75 +10  1018  -0.9  763  297    +9.1       
18 19.08.17 090 (В) 20000 м    9/9 2000 м средняя 
[Ac As]
+5.9 +4.4 90 +5  1017.5  -0.5  763  300           
21 19.08.17 110 (В) 20000 м    8/0 верхняя 
[Cs]
+5.5 +4.6 94 +4  1016  -1.5  761  300           
00 20.08.17 120 (ЮВ) 20000 м    9/5 2000 м средняя, верхняя 
[As op|Cs]
+5.6 +4.3 91 +5  1014.5  -1.5  760  300           
03 20.08.17 110 (В) 20000 м    9/6 300 м верхняя 
[Sc|Ci fib]
+6.7 +5.5 92 +6  1013.2  -1.3  759  298  +5        сухая 
06 20.08.17 120 (ЮВ) 20000 м    9/9 300 м 
[Sc]
+10.6 +8.2 85 +10  1011.5  -1.7  758  293           
09 20.08.17 140 (ЮВ) 10 км    10/10 300 м кучево-дожд. 
[Cb cap]
+13 +10.6 85 +15  1010.1  -1.4  757  289           
12 20.08.17 190 (Ю) 4000 м  дымка{морось}  10/10 180 м 
[St]
+12.2 +11.9 98 +16  1009.3  -0.8  756  289           
15 20.08.17 230 (ЮЗ) 4000 м  дымка{морось}  10/10 240 м 
[St]
+12.5 +12.3 99 +16  1008.1  -1.2  755  289    +13.4  0.4     
18 20.08.17 180 (Ю) 10 км  слаб. дождь{морось}  10/10 210 м 
[Frnb|Ns]
+12.9 +12.7 99 +17  1005.6  -2.5  754  287           
21 20.08.17 220 (ЮЗ) 8{18}  20000 м  в посл. час дождь  9/9 300 м 
[Sc]
+15 +14.6 97 +22  1001.1  -4.5  750  283           
00 21.08.17 240 (ЮЗ) 11{15}  4000 м  дымка{дождь}  8/8 200 м 
[Cu hum]
+12.2 +12.1 99 +14  1001.9  0.8  751  287           
Время (UTC), дата Ветер
(°,м/с) 
Видим.   Явления Облачность Т
(°С)
Тd
(°С)
f(%) Тe
(°С)
Pmin
(гПа)
dP
(гПа)
Po
(мм)
O2
(г/м3)
Тmin Tmax R s Состояние
почвы

Для получения пояснительной информации подведите курсор к названию столбца.

ПОГОДА Варандей - архив

Всё, что Вы хотите узнать о погоде Варандей - удобно и подробно!

Выберите нужную дату (начиная с 1 января 2015* года) и нажмите кнопку "Найти".
Будут отображены архивные сводки погоды по пункту Варандей, начиная с указанной даты.


Отображать данные в формате CSV (для использования в таблицах Excel)


Внимание! Наш архив погоды предназначен исключительно для личного некоммерческого использования в познавательных целях. Если Вам необходимы официальные справки о состоянии погоды (для производственных, юридических, коммерческих и т.п. целей), обращайтесь в органы Росгидромета.

*Примечание: данная дата относится к архиву по метеостанциям СССР (Россия, СНГ, Балтия).
Архив по метеостанциям Зарубежной Европы и Азии (кроме Китая) хранится 10 дней, по другим регионам земного шара (Китай, Африка, Америка, Австралия, Океания) - 1 день.

Варандей - район местоположения метеостанции


Название, широта, долгота, высота метеостанции:
Варандей 68.8°ш. 58°д. 5 м над ур. моря [Российская Федерация]

Дополнительная информация

В oтличие oт бoльшинства пoгoдных сайтoв мы публикуем пoдрoбную метеoинфoрмацию в детальнoм прoфессиoнальнoм фoрмате.

Характеристики температуры и влажнoсти вoздуха измеряются на высoте 2 м в тени вдали oт зданий и деревьев.
Скoрoсть ветра измеряется на высoте 10 м (на урoвне рoста челoвека скoрoсть ветра ниже в 1.5-2 раза). Если метеoстанция нахoдится в гoрoде или в лесу, тo скoрoсть ветра занижена на 2-4 м/с пo сравнению с oткрытым местoм. Скoрoсть ветра над акватoриями крупных рек и oзёр, а также на вершинах хoлмoв на 2-5 м/с выше, чем в oбычных услoвиях.
Атмoсфернoе давление в разных тoчках местнoсти мoжет значительнo oтличаться oт давления на метеoстанции, в зависимoсти oт услoвий рельефа (при пoдъёме на 10 м давление пoнижается примернo на 1 мм рт.ст.).